User: anonymous   Login
Location: Béaulencourt
(50.0796°N, 2.8795°E)
Time: 08:21:38
(UTC+00:00)
Language:

MOS 1 Rocket - Orbit

View from above orbital plane
View from above orbital plane
View from above satellite
View from above satellite

Ground track
Ground track

The orbit is defined by the following mean orbital elements,

1 17528U          26072.96898116 +.00000000 +00000-0 +24139-3 0 00003
2 17528  97.4034  78.0250 0144230   0.2691 359.8561 14.54496825    01
Epoch (UTC): 13 March 2026 23:15:19
Eccentricity: 0.0144230
inclination: 97.4034°
perigee height: 609 km
apogee height: 813 km
right ascension of ascending node: 78.0250°
argument of perigee: 0.2691°
revolutions per day: 14.54496825
mean anomaly at epoch: 359.8561°

The dashed part of the orbit path shows where the satellite is in the earth's shadow,  

DLR